Location: Unspecified
(0.0000°N, 0.0000°E)
Time: 06:30:08
(UTC+00:00)

Vanguard 2 Rocket - Pass Details

Date: 11 October 2023
Orbit: 552 x 3312 km, 32.9° (Epoch: 06 December)

Event Time Altitude Azimuth Distance (km) Brightness Sun altitude
Rises 04:52:40 0° 263° (W) 3,017 - -13.5°
Reaches altitude 10° 04:54:57 10° 276° (W) 2,291 - -12.9°
Exits shadow 04:56:12 17° 287° (WNW) 1,984 8.0 -12.6°
Maximum altitude 04:59:31 28° 336° (NNW) 1,756 8.1 -11.8°
Drops below altitude 10° 05:06:24 10° 32° (NNE) 3,531 10.2 -10.0°
Sets 05:10:55 0° 42° (NE) 5,033 11.2 -8.9°
